Year,Month,Day,Hour,Minute,Value (Times are PST for temperature in C)
2010,09,30,12,57,18.60
2010,09,30,13,07,19.00
2010,09,30,13,08,19.10
2010,09,30,13,09,19.10
2010,09,30,13,10,19.20
2010,09,30,13,11,19.30
2010,09,30,13,12,19.40
2010,09,30,13,13,19.50
2010,09,30,13,14,19.60
2010,09,30,13,15,19.60
2010,09,30,13,16,19.60
2010,09,30,13,17,19.70
2010,09,30,13,18,19.80
2010,09,30,13,19,19.90
2010,09,30,13,20,19.90
2010,09,30,13,21,19.90
2010,09,30,13,22,19.90
2010,09,30,13,23,19.90
2010,09,30,13,24,19.90
2010,09,30,13,25,19.90
2010,09,30,13,26,19.80
2010,09,30,13,27,19.80
2010,09,30,13,28,19.80
2010,09,30,13,29,19.90
2010,09,30,13,30,19.90
2010,09,30,13,31,19.90
2010,09,30,13,32,19.90
2010,09,30,13,33,20.00
2010,09,30,13,34,20.00
2010,09,30,13,35,20.10
2010,09,30,13,36,20.10
2010,09,30,13,37,20.20
2010,09,30,13,38,20.20
2010,09,30,13,39,20.30
2010,09,30,13,40,20.40
2010,09,30,13,41,20.50
2010,09,30,13,42,20.40
2010,09,30,13,43,20.40
2010,09,30,13,44,20.40
2010,09,30,13,45,20.30
2010,09,30,13,46,20.20
2010,09,30,13,47,20.20
2010,09,30,13,48,20.00
2010,09,30,13,49,19.90
2010,09,30,13,50,19.80
2010,09,30,13,51,19.80
2010,09,30,13,52,19.80
2010,09,30,13,53,19.70
2010,09,30,13,54,19.80
2010,09,30,13,55,19.80
2010,09,30,13,56,19.90
2010,09,30,13,57,19.80
2010,09,30,13,58,19.80
2010,09,30,13,59,19.70
2010,09,30,14,00,19.70
2010,09,30,14,01,19.70
2010,09,30,14,02,19.70
2010,09,30,14,03,19.70
2010,09,30,14,04,19.80
2010,09,30,14,05,19.80
2010,09,30,14,06,19.90
2010,09,30,14,07,19.90
2010,09,30,14,08,19.90
2010,09,30,14,09,19.90
2010,09,30,14,10,19.90
2010,09,30,14,11,19.90
2010,09,30,14,12,19.90
2010,09,30,14,13,19.90
2010,09,30,14,14,19.90
2010,09,30,14,15,19.80
2010,09,30,14,16,19.70
2010,09,30,14,17,19.70
2010,09,30,14,18,19.70
2010,09,30,14,19,19.70
2010,09,30,14,20,19.60
2010,09,30,14,21,19.60
2010,09,30,14,22,19.50
2010,09,30,14,23,19.40
2010,09,30,14,24,19.40
2010,09,30,14,25,19.40
2010,09,30,14,26,19.40
2010,09,30,14,27,19.50
2010,09,30,14,28,19.50
2010,09,30,14,29,19.60
2010,09,30,14,30,19.70
2010,09,30,14,31,19.80
2010,09,30,14,32,19.80
2010,09,30,14,33,19.80
2010,09,30,14,34,19.80
2010,09,30,14,35,19.90
2010,09,30,14,36,19.90
2010,09,30,14,37,19.90
2010,09,30,14,38,19.90
2010,09,30,14,39,19.80
2010,09,30,14,40,19.70
2010,09,30,14,41,19.60
2010,09,30,14,42,19.60
2010,09,30,14,43,19.60
2010,09,30,14,44,19.60
2010,09,30,14,45,19.70
2010,09,30,14,46,19.70
2010,09,30,14,47,19.70
2010,09,30,14,48,19.70
2010,09,30,14,49,19.70
2010,09,30,14,50,19.80
2010,09,30,14,51,19.70
2010,09,30,14,52,19.70
2010,09,30,14,53,19.70
2010,09,30,14,54,19.80
2010,09,30,14,55,19.80
2010,09,30,14,56,19.80
2010,09,30,14,57,19.80
2010,09,30,14,58,19.90
2010,09,30,14,59,19.80
2010,09,30,15,00,19.80
2010,09,30,15,01,19.90
2010,09,30,15,02,19.90
2010,09,30,15,03,20.00
2010,09,30,15,04,20.00
2010,09,30,15,05,19.90
2010,09,30,15,06,19.90
2010,09,30,15,07,19.80
2010,09,30,15,08,19.70
2010,09,30,15,09,19.60
2010,09,30,15,10,19.50
2010,09,30,15,11,19.50
2010,09,30,15,12,19.50
2010,09,30,15,13,19.50
2010,09,30,15,14,19.50
2010,09,30,15,15,19.50
2010,09,30,15,16,19.60
2010,09,30,15,17,19.70
2010,09,30,15,18,19.80
2010,09,30,15,19,19.90
2010,09,30,15,20,19.90
2010,09,30,15,21,19.90
2010,09,30,15,22,19.90
2010,09,30,15,23,20.00
2010,09,30,15,24,20.00
2010,09,30,15,25,20.10
2010,09,30,15,26,20.10
2010,09,30,15,27,20.20
2010,09,30,15,28,20.20
2010,09,30,15,29,20.10
2010,09,30,15,30,20.10
2010,09,30,15,31,20.10
2010,09,30,15,32,20.10
2010,09,30,15,33,20.10
2010,09,30,15,34,20.10
2010,09,30,15,35,20.20
2010,09,30,15,36,20.20
2010,09,30,15,37,20.10
2010,09,30,15,38,20.10
2010,09,30,15,39,20.10
2010,09,30,15,40,20.10
2010,09,30,15,41,20.10
2010,09,30,15,42,20.10
2010,09,30,15,43,20.10
2010,09,30,15,44,20.00
2010,09,30,15,45,20.00
2010,09,30,15,46,20.00
2010,09,30,15,47,20.00
2010,09,30,15,48,20.00
2010,09,30,15,49,20.00
2010,09,30,15,50,19.90
2010,09,30,15,51,19.90
2010,09,30,15,52,20.00
2010,09,30,15,53,20.00
2010,09,30,15,54,20.10
2010,09,30,15,55,20.10
2010,09,30,15,56,20.10
2010,09,30,15,57,20.10
2010,09,30,15,58,20.10
2010,09,30,15,59,20.10
2010,09,30,16,00,20.10
2010,09,30,16,01,20.10
2010,09,30,16,02,20.10
2010,09,30,16,03,20.10
2010,09,30,16,04,20.10
2010,09,30,16,05,20.10
2010,09,30,16,06,20.00
2010,09,30,16,07,20.00
2010,09,30,16,08,20.00
2010,09,30,16,09,20.00
2010,09,30,16,10,20.00
2010,09,30,16,11,20.00
2010,09,30,16,12,20.00
2010,09,30,16,13,20.00
2010,09,30,16,14,20.00
2010,09,30,16,15,20.00
2010,09,30,16,16,20.00
2010,09,30,16,17,19.90
2010,09,30,16,18,19.90
2010,09,30,16,19,19.80
2010,09,30,16,20,19.80
2010,09,30,16,21,19.80
2010,09,30,16,22,19.80
2010,09,30,16,23,19.80
2010,09,30,16,24,19.80
2010,09,30,16,25,19.80
2010,09,30,16,26,19.70
2010,09,30,16,27,19.70
2010,09,30,16,28,19.70
2010,09,30,16,29,19.70
2010,09,30,16,30,19.70
2010,09,30,16,31,19.60
2010,09,30,16,32,19.60
2010,09,30,16,33,19.60
2010,09,30,16,34,19.60
2010,09,30,16,35,19.60
2010,09,30,16,36,19.60
2010,09,30,16,37,19.60
2010,09,30,16,38,19.60
2010,09,30,16,39,19.60
2010,09,30,16,40,19.60
2010,09,30,16,41,19.60
2010,09,30,16,42,19.50
2010,09,30,16,43,19.50
2010,09,30,16,44,19.50
2010,09,30,16,45,19.50
2010,09,30,16,46,19.60
2010,09,30,16,47,19.60
2010,09,30,16,48,19.60
2010,09,30,16,49,19.70
2010,09,30,16,50,19.70
2010,09,30,16,51,19.70
2010,09,30,16,52,19.70
2010,09,30,16,53,19.80
2010,09,30,16,54,19.80
2010,09,30,16,55,19.80
2010,09,30,16,56,19.80
2010,09,30,16,57,19.80
2010,09,30,16,58,19.80
2010,09,30,16,59,19.80
2010,09,30,17,00,19.80
2010,09,30,17,01,19.80
2010,09,30,17,02,19.80
2010,09,30,17,03,19.80
2010,09,30,17,04,19.80
2010,09,30,17,05,19.80
2010,09,30,17,06,19.70
2010,09,30,17,07,19.60
2010,09,30,17,08,19.60
2010,09,30,17,09,19.60
2010,09,30,17,10,19.60
2010,09,30,17,11,19.60
2010,09,30,17,12,19.60
2010,09,30,17,13,19.60
2010,09,30,17,14,19.60
2010,09,30,17,15,19.50
2010,09,30,17,16,19.50
2010,09,30,17,17,19.50
2010,09,30,17,18,19.40
2010,09,30,17,19,19.40
2010,09,30,17,20,19.30
2010,09,30,17,21,19.30
2010,09,30,17,22,19.30
2010,09,30,17,23,19.30
2010,09,30,17,24,19.30
2010,09,30,17,25,19.30
2010,09,30,17,26,19.40
2010,09,30,17,27,19.40
2010,09,30,17,28,19.40
2010,09,30,17,29,19.40
2010,09,30,17,30,19.40
2010,09,30,17,31,19.40
2010,09,30,17,32,19.40
2010,09,30,17,33,19.40
2010,09,30,17,34,19.40
2010,09,30,17,35,19.30
2010,09,30,17,36,19.30
2010,09,30,17,37,19.30
2010,09,30,17,38,19.20
2010,09,30,17,39,19.20
2010,09,30,17,40,19.20
2010,09,30,17,41,19.20
2010,09,30,17,42,19.20
2010,09,30,17,43,19.20
2010,09,30,17,44,19.20
2010,09,30,17,45,19.20
2010,09,30,17,46,19.20
2010,09,30,17,47,19.20
2010,09,30,17,48,19.10
2010,09,30,17,49,19.10
2010,09,30,17,50,19.00
2010,09,30,17,51,19.00
2010,09,30,17,52,18.90
2010,09,30,17,53,18.90
2010,09,30,17,54,18.90
2010,09,30,17,55,18.90
2010,09,30,17,56,18.80
2010,09,30,17,57,18.80
2010,09,30,17,58,18.80
2010,09,30,17,59,18.80
2010,09,30,18,00,18.80
2010,09,30,18,01,18.80
2010,09,30,18,02,18.70
2010,09,30,18,03,18.70
2010,09,30,18,04,18.60
2010,09,30,18,05,18.60
2010,09,30,18,06,18.60
2010,09,30,18,07,18.60
2010,09,30,18,08,18.60
2010,09,30,18,09,18.60
2010,09,30,18,10,18.60
2010,09,30,18,11,18.60
2010,09,30,18,12,18.70
2010,09,30,18,13,18.80
2010,09,30,18,14,18.90
2010,09,30,18,15,18.90
2010,09,30,18,16,18.90
2010,09,30,18,17,18.90
2010,09,30,18,18,18.90
2010,09,30,18,19,18.80
2010,09,30,18,20,18.80
2010,09,30,18,21,18.80
2010,09,30,18,22,18.80
2010,09,30,18,23,18.90
2010,09,30,18,24,18.90
2010,09,30,18,25,18.90
2010,09,30,18,26,19.00
2010,09,30,18,27,19.00
2010,09,30,18,28,19.10
2010,09,30,18,29,19.10
2010,09,30,18,30,19.10
2010,09,30,18,31,19.20
2010,09,30,18,32,19.20
2010,09,30,18,33,19.10
2010,09,30,18,34,19.10
2010,09,30,18,35,19.00
2010,09,30,18,36,18.80
2010,09,30,18,37,18.70
2010,09,30,18,38,18.60
2010,09,30,18,39,18.50
2010,09,30,18,40,18.40
2010,09,30,18,41,18.30
2010,09,30,18,42,18.20
2010,09,30,18,43,18.10
2010,09,30,18,44,18.10
2010,09,30,18,45,18.00
2010,09,30,18,46,17.90
2010,09,30,18,47,17.80
2010,09,30,18,48,17.70
2010,09,30,18,49,17.60
2010,09,30,18,50,17.50
2010,09,30,18,51,17.40
2010,09,30,18,52,17.30
2010,09,30,18,53,17.20
2010,09,30,18,54,17.10
2010,09,30,18,55,17.00
2010,09,30,18,56,16.90
2010,09,30,18,57,16.80
2010,09,30,18,58,16.80
2010,09,30,18,59,16.70
2010,09,30,19,00,16.60
2010,09,30,19,01,16.60
2010,09,30,19,02,16.50
2010,09,30,19,03,16.40
2010,09,30,19,04,16.40
2010,09,30,19,05,16.30
2010,09,30,19,06,16.20
2010,09,30,19,07,16.20
2010,09,30,19,08,16.10
2010,09,30,19,09,16.10
2010,09,30,19,10,16.00
2010,09,30,19,11,15.90
2010,09,30,19,12,15.80
2010,09,30,19,13,15.70
2010,09,30,19,14,15.60
2010,09,30,19,15,15.50
2010,09,30,19,16,15.50
2010,09,30,19,17,15.40
2010,09,30,19,18,15.30
2010,09,30,19,19,15.20
2010,09,30,19,20,15.10
2010,09,30,19,21,15.10
2010,09,30,19,22,15.00
2010,09,30,19,23,15.00
2010,09,30,19,24,15.00
2010,09,30,19,25,15.00
2010,09,30,19,26,14.90
2010,09,30,19,27,14.80
2010,09,30,19,28,14.80
2010,09,30,19,29,14.80
2010,09,30,19,30,14.80
2010,09,30,19,31,14.70
2010,09,30,19,32,14.70
2010,09,30,19,33,14.70
2010,09,30,19,34,14.70
2010,09,30,19,35,14.70
2010,09,30,19,36,14.70
2010,09,30,19,37,14.70
2010,09,30,19,38,14.70
2010,09,30,19,39,14.60
2010,09,30,19,40,14.60
2010,09,30,19,41,14.60
2010,09,30,19,42,14.50
2010,09,30,19,43,14.50
2010,09,30,19,44,14.50
2010,09,30,19,45,14.40
2010,09,30,19,46,14.40
2010,09,30,19,47,14.30
2010,09,30,19,48,14.30
2010,09,30,19,49,14.30
2010,09,30,19,50,14.30
2010,09,30,19,51,14.30
2010,09,30,19,52,14.20
2010,09,30,19,53,14.20
2010,09,30,19,54,14.20
2010,09,30,19,55,14.20
2010,09,30,19,56,14.10
2010,09,30,19,57,14.10
2010,09,30,19,58,14.10
2010,09,30,19,59,14.10
2010,09,30,20,00,14.10
2010,09,30,20,01,14.00
2010,09,30,20,02,14.00
2010,09,30,20,03,13.90
2010,09,30,20,04,13.90
2010,09,30,20,05,13.80
2010,09,30,20,06,13.80
2010,09,30,20,07,13.70
2010,09,30,20,08,13.70
2010,09,30,20,09,13.70
2010,09,30,20,10,13.70
2010,09,30,20,11,13.70
2010,09,30,20,12,13.70
2010,09,30,20,13,13.70
2010,09,30,20,14,13.60
2010,09,30,20,15,13.60
2010,09,30,20,16,13.60
2010,09,30,20,17,13.50
2010,09,30,20,18,13.50
2010,09,30,20,19,13.40
2010,09,30,20,20,13.30
2010,09,30,20,21,13.30
2010,09,30,20,22,13.20
2010,09,30,20,23,13.20
2010,09,30,20,24,13.20
2010,09,30,20,25,13.10
2010,09,30,20,26,13.10
2010,09,30,20,27,13.10
2010,09,30,20,28,13.00
2010,09,30,20,29,13.00
2010,09,30,20,30,13.00
2010,09,30,20,31,13.00
2010,09,30,20,32,12.90
2010,09,30,20,33,12.90
2010,09,30,20,34,12.90
2010,09,30,20,35,12.90
2010,09,30,20,36,12.90
2010,09,30,20,37,12.90
2010,09,30,20,38,12.80
2010,09,30,20,39,12.80
2010,09,30,20,40,12.80
2010,09,30,20,41,12.80
2010,09,30,20,42,12.80
2010,09,30,20,43,12.70
2010,09,30,20,44,12.70
2010,09,30,20,45,12.70
2010,09,30,20,46,12.70
2010,09,30,20,47,12.70
2010,09,30,20,48,12.70
2010,09,30,20,49,12.70
2010,09,30,20,50,12.70
2010,09,30,20,51,12.60
2010,09,30,20,52,12.60
2010,09,30,20,53,12.60
2010,09,30,20,54,12.60
2010,09,30,20,55,12.60
2010,09,30,20,56,12.50
2010,09,30,20,57,12.50
2010,09,30,20,58,12.50
2010,09,30,20,59,12.40
2010,09,30,21,00,12.40
2010,09,30,21,01,12.40
2010,09,30,21,02,12.40
2010,09,30,21,03,12.30
2010,09,30,21,04,12.30
2010,09,30,21,05,12.30
2010,09,30,21,06,12.20
2010,09,30,21,07,12.20
2010,09,30,21,08,12.20
2010,09,30,21,09,12.20
2010,09,30,21,10,12.20
2010,09,30,21,11,12.20
2010,09,30,21,12,12.20
2010,09,30,21,13,12.20
2010,09,30,21,14,12.20
2010,09,30,21,15,12.20
2010,09,30,21,16,12.20
2010,09,30,21,17,12.20
2010,09,30,21,18,12.20
2010,09,30,21,19,12.10
2010,09,30,21,20,12.10
2010,09,30,21,21,12.10
2010,09,30,21,22,12.10
2010,09,30,21,23,12.10
2010,09,30,21,24,12.10
2010,09,30,21,25,12.00
2010,09,30,21,26,12.00
2010,09,30,21,27,12.00
2010,09,30,21,28,11.90
2010,09,30,21,29,11.90
2010,09,30,21,30,11.80
2010,09,30,21,31,11.80
2010,09,30,21,32,11.80
2010,09,30,21,33,11.80
2010,09,30,21,34,11.70
2010,09,30,21,35,11.70
2010,09,30,21,36,11.70
2010,09,30,21,37,11.70
2010,09,30,21,38,11.70
2010,09,30,21,39,11.70
2010,09,30,21,40,11.70
2010,09,30,21,41,11.70
2010,09,30,21,42,11.60
2010,09,30,21,43,11.60
2010,09,30,21,44,11.60
2010,09,30,21,45,11.60
2010,09,30,21,46,11.50
2010,09,30,21,47,11.50
2010,09,30,21,48,11.50
2010,09,30,21,49,11.40
2010,09,30,21,50,11.40
2010,09,30,21,51,11.40
2010,09,30,21,52,11.40
2010,09,30,21,53,11.30
2010,09,30,21,54,11.30
2010,09,30,21,55,11.30
2010,09,30,21,56,11.30
2010,09,30,21,57,11.30
2010,09,30,21,58,11.20
2010,09,30,21,59,11.20
2010,09,30,22,00,11.20
2010,09,30,22,01,11.20
2010,09,30,22,02,11.20
2010,09,30,22,03,11.20
2010,09,30,22,04,11.20
2010,09,30,22,05,11.20
2010,09,30,22,06,11.20
2010,09,30,22,07,11.20
2010,09,30,22,08,11.20
2010,09,30,22,09,11.20
2010,09,30,22,10,11.20
2010,09,30,22,11,11.20
2010,09,30,22,12,11.20
2010,09,30,22,13,11.20
2010,09,30,22,14,11.20
2010,09,30,22,15,11.20
2010,09,30,22,16,11.20
2010,09,30,22,17,11.10
2010,09,30,22,18,11.10
2010,09,30,22,19,11.10
2010,09,30,22,20,11.10
2010,09,30,22,21,11.10
2010,09,30,22,22,11.10
2010,09,30,22,23,11.10
2010,09,30,22,24,11.00
2010,09,30,22,25,11.00
2010,09,30,22,26,11.00
2010,09,30,22,27,10.90
2010,09,30,22,28,10.90
2010,09,30,22,29,10.90
2010,09,30,22,30,10.80
2010,09,30,22,31,10.80
2010,09,30,22,32,10.80
2010,09,30,22,33,10.80
2010,09,30,22,34,10.80
2010,09,30,22,35,10.70
2010,09,30,22,36,10.70
2010,09,30,22,37,10.70
2010,09,30,22,38,10.70
2010,09,30,22,39,10.60
2010,09,30,22,40,10.60
2010,09,30,22,41,10.60
2010,09,30,22,42,10.60
2010,09,30,22,43,10.60
2010,09,30,22,44,10.60
2010,09,30,22,45,10.60
2010,09,30,22,46,10.60
2010,09,30,22,47,10.60
2010,09,30,22,48,10.60
2010,09,30,22,49,10.50
2010,09,30,22,50,10.50
2010,09,30,22,51,10.50
2010,09,30,22,52,10.40
2010,09,30,22,53,10.40
2010,09,30,22,54,10.40
2010,09,30,22,55,10.40
2010,09,30,22,56,10.40
2010,09,30,22,57,10.30
2010,09,30,22,58,10.30
2010,09,30,22,59,10.30
2010,09,30,23,00,10.40
2010,09,30,23,01,10.40
2010,09,30,23,02,10.40
2010,09,30,23,03,10.40
2010,09,30,23,04,10.40
2010,09,30,23,05,10.40
2010,09,30,23,06,10.30
2010,09,30,23,07,10.30
2010,09,30,23,08,10.30
2010,09,30,23,09,10.30
2010,09,30,23,10,10.30
2010,09,30,23,11,10.30
2010,09,30,23,12,10.30
2010,09,30,23,13,10.30
2010,09,30,23,14,10.30
2010,09,30,23,15,10.30
2010,09,30,23,16,10.30
2010,09,30,23,17,10.30
2010,09,30,23,18,10.30
2010,09,30,23,19,10.30
2010,09,30,23,20,10.30
2010,09,30,23,21,10.20
2010,09,30,23,22,10.20
2010,09,30,23,23,10.20
2010,09,30,23,24,10.20
2010,09,30,23,25,10.20
2010,09,30,23,26,10.10
2010,09,30,23,27,10.10
2010,09,30,23,28,10.10
2010,09,30,23,29,10.10
2010,09,30,23,30,10.10
2010,09,30,23,31,10.00
2010,09,30,23,32,10.00
2010,09,30,23,33,10.00
2010,09,30,23,34,10.00
2010,09,30,23,35,10.00
2010,09,30,23,36,10.00
2010,09,30,23,37,10.00
2010,09,30,23,38,10.00
2010,09,30,23,39,9.90
2010,09,30,23,40,9.90
2010,09,30,23,41,9.90
2010,09,30,23,42,9.90
2010,09,30,23,43,9.90
2010,09,30,23,44,9.90
2010,09,30,23,45,9.90
2010,09,30,23,46,10.00
2010,09,30,23,47,10.00
2010,09,30,23,48,10.00
2010,09,30,23,49,10.00
2010,09,30,23,50,10.00
2010,09,30,23,51,10.00
2010,09,30,23,52,10.00
2010,09,30,23,53,10.00
2010,09,30,23,54,10.00
2010,09,30,23,55,9.90
2010,09,30,23,56,9.90
2010,09,30,23,57,10.00
2010,09,30,23,58,10.00
2010,09,30,23,59,10.00
